Torna al catalogo

STARLINK-2029

AttivoComunicazioniVLEO
NORAD 48320·PAYLOAD·🇺🇸 United States

Lanciato Apr 29, 2021 da Cape Canaveral Space Force Station

Loading…

Prossimi Passaggi (prossime 24 ore)

TLE

AggiornatoSource: CelesTrak SupGP

Epoca: Sep 15, 2026, 02:04 UTC

1 48320C 21036AW  26258.08659722  .00037033  00000+0  11904-2 0  2581
2 48320  53.1576 300.0391 0001275  98.3635 246.5863 15.31696277    13

Traccia STARLINK-2029 in tempo reale con AllMySat

Download on the App Store